PHVOP EHRD-ZZZZ

Flight info

Callsign PHVOP
Flight time N/A
Altitude 1500
Route EHRD ZZZZ
Aircraft CI22/L-V/N

Departure

Time 2026-05-06 18:22
Airport Rotterdam The Hague Airport (EHRD)

Arrival

Time N/A
Airport ZZZZ
Time Latitude Longitude Altitude Speed Heading
2026-05-06 18:14 51.94918 4.42641 -4 ft 0 kts 232°
2026-05-06 18:18 51.94917 4.42641 -4 ft 0 kts 232°
2026-05-06 18:19 51.94916 4.42639 -4 ft 1 kts 231°
2026-05-06 18:19 51.94913 4.42623 -4 ft 1 kts 284°
2026-05-06 18:20 51.94935 4.42655 -4 ft 9 kts 57°
2026-05-06 18:20 51.94950 4.42695 -4 ft 0 kts 59°
2026-05-06 18:20 51.94979 4.42725 -4 ft 13 kts 28°
2026-05-06 18:20 51.95036 4.42855 -4 ft 14 kts 64°
2026-05-06 18:21 51.95091 4.43000 -4 ft 16 kts 58°
2026-05-06 18:21 51.95169 4.43104 -4 ft 15 kts 343°
2026-05-06 18:21 51.95195 4.43097 -4 ft 2 kts
2026-05-06 18:21 51.95274 4.43104 -4 ft 9 kts
2026-05-06 18:22 51.95374 4.43242 -5 ft 35 kts 56°
2026-05-06 18:22 51.95643 4.43899 75 ft 91 kts 56°
2026-05-06 18:22 51.96031 4.44853 305 ft 109 kts 55°
2026-05-06 18:22 51.96496 4.45854 656 ft 111 kts 50°
2026-05-06 18:23 51.96992 4.46851 959 ft 118 kts 46°
2026-05-06 18:23 51.97318 4.48049 1169 ft 119 kts 81°
2026-05-06 18:23 51.97528 4.49312 1231 ft 116 kts 61°
2026-05-06 18:23 51.97894 4.50471 1320 ft 116 kts 60°
2026-05-06 18:24 51.98245 4.51669 1374 ft 120 kts 64°
2026-05-06 18:24 51.98533 4.53004 1324 ft 138 kts 72°
2026-05-06 18:24 51.98807 4.54575 1316 ft 151 kts 71°
2026-05-06 18:24 51.99103 4.56265 1301 ft 157 kts 71°
2026-05-06 18:25 51.99363 4.57985 1386 ft 156 kts 74°
2026-05-06 18:25 51.99580 4.59631 1423 ft 142 kts 75°
2026-05-06 18:25 51.99792 4.61151 1369 ft 137 kts 75°
2026-05-06 18:25 52.00026 4.62630 1292 ft 135 kts 71°
2026-05-06 18:26 52.00381 4.64047 1279 ft 141 kts 53°
2026-05-06 18:26 52.01088 4.65178 1310 ft 149 kts 41°
2026-05-06 18:26 52.01541 4.66043 1322 ft 153 kts 52°
2026-05-06 18:26 52.02137 4.67472 1428 ft 154 kts 58°
2026-05-06 18:27 52.02579 4.69055 1560 ft 153 kts 67°
2026-05-06 18:27 52.03113 4.70547 1607 ft 155 kts 54°
2026-05-06 18:27 52.03769 4.71949 1647 ft 155 kts 53°
2026-05-06 18:27 52.04299 4.73474 1676 ft 156 kts 60°
2026-05-06 18:28 52.04713 4.75109 1689 ft 157 kts 69°
2026-05-06 18:28 52.05105 4.76744 1807 ft 153 kts 62°
2026-05-06 18:28 52.05689 4.78202 1838 ft 156 kts 50°
2026-05-06 18:28 52.06400 4.79569 1737 ft 163 kts 48°
2026-05-06 18:29 52.07184 4.80902 1704 ft 164 kts 43°
2026-05-06 18:29 52.07997 4.82265 1518 ft 172 kts 47°
2026-05-06 18:29 52.08782 4.83698 1498 ft 167 kts 47°
2026-05-06 18:29 52.09564 4.85065 1489 ft 163 kts 37°
2026-05-06 18:30 52.10615 4.85663 1497 ft 164 kts 12°
2026-05-06 18:30 52.11738 4.85980 1497 ft 163 kts 12°
2026-05-06 18:30 52.12856 4.86300 1493 ft 163 kts 12°
2026-05-06 18:30 52.13974 4.86616 1496 ft 163 kts 12°
2026-05-06 18:31 52.15082 4.86996 1489 ft 161 kts 23°
2026-05-06 18:31 52.15863 4.88239 1493 ft 161 kts 60°
2026-05-06 18:31 52.16346 4.89897 1513 ft 162 kts 62°
2026-05-06 18:31 52.16830 4.91556 1523 ft 162 kts 62°
2026-05-06 18:32 52.17490 4.92999 1525 ft 162 kts 33°
2026-05-06 18:32 52.18591 4.93277 1503 ft 167 kts 352°
2026-05-06 18:32 52.19718 4.92591 1211 ft 179 kts 338°
2026-05-06 18:32 52.20797 4.91542 1028 ft 178 kts 333°
2026-05-06 18:33 52.21814 4.90461 1024 ft 173 kts 329°
2026-05-06 18:33 52.22665 4.89195 1017 ft 161 kts 317°
2026-05-06 18:33 52.23326 4.87768 1017 ft 154 kts 312°
2026-05-06 18:33 52.23948 4.86385 1019 ft 149 kts 313°
2026-05-06 18:34 52.24548 4.85017 1020 ft 146 kts 312°
2026-05-06 18:34 52.25133 4.83668 1017 ft 145 kts 312°
2026-05-06 18:34 52.25700 4.82377 1017 ft 131 kts 312°
2026-05-06 18:34 52.26217 4.81161 1018 ft 133 kts 312°
2026-05-06 18:35 52.26783 4.79991 1012 ft 129 kts 327°
2026-05-06 18:35 52.27555 4.79483 1054 ft 116 kts
2026-05-06 18:35 52.28252 4.80036 1084 ft 113 kts 37°
2026-05-06 18:35 52.29004 4.80532 1022 ft 121 kts
2026-05-06 18:36 52.29848 4.80497 1027 ft 121 kts
2026-05-06 18:36 52.30686 4.80431 1031 ft 120 kts
2026-05-06 18:36 52.31518 4.80373 1028 ft 119 kts
2026-05-06 18:36 52.32220 4.80319 1025 ft 117 kts
2026-05-06 18:37 52.33026 4.80260 1024 ft 116 kts
2026-05-06 18:37 52.33827 4.80200 1019 ft 115 kts
2026-05-06 18:37 52.34545 4.80616 1019 ft 111 kts 30°
2026-05-06 18:37 52.35267 4.81087 1028 ft 112 kts 22°
2026-05-06 18:38 52.36004 4.81537 1028 ft 113 kts 22°
2026-05-06 18:38 52.36738 4.81990 1029 ft 113 kts 22°
2026-05-06 18:38 52.37470 4.82444 1026 ft 113 kts 23°
2026-05-06 18:38 52.38212 4.82857 1028 ft 113 kts 22°
2026-05-06 18:39 52.39011 4.82961 1030 ft 120 kts
2026-05-06 18:39 52.39838 4.82853 1031 ft 119 kts
2026-05-06 18:39 52.40662 4.82757 1037 ft 119 kts
2026-05-06 18:40 52.42288 4.82649 1032 ft 116 kts
2026-05-06 18:40 52.43089 4.82571 1024 ft 115 kts
2026-05-06 18:40 52.43887 4.82502 1021 ft 114 kts
2026-05-06 18:40 52.44678 4.82416 1018 ft 114 kts
2026-05-06 18:41 52.45473 4.82347 1035 ft 115 kts
2026-05-06 18:41 52.46245 4.82275 1183 ft 108 kts
2026-05-06 18:41 52.46983 4.82204 1327 ft 104 kts
2026-05-06 18:41 52.47693 4.82141 1472 ft 101 kts
2026-05-06 18:42 52.48411 4.82069 1526 ft 107 kts
2026-05-06 18:42 52.49176 4.82003 1535 ft 113 kts
2026-05-06 18:42 52.49985 4.81922 1535 ft 122 kts
2026-05-06 18:42 52.50861 4.81843 1535 ft 129 kts
2026-05-06 18:43 52.51763 4.81782 1536 ft 133 kts
2026-05-06 18:43 52.52694 4.81807 1537 ft 134 kts 11°
2026-05-06 18:43 52.53632 4.82040 1535 ft 136 kts 12°
2026-05-06 18:43 52.54558 4.82289 1535 ft 137 kts 13°
2026-05-06 18:44 52.55499 4.82526 1534 ft 137 kts 12°
2026-05-06 18:44 52.56441 4.82763 1535 ft 137 kts 12°
2026-05-06 18:44 52.57391 4.83000 1532 ft 139 kts 12°
2026-05-06 18:44 52.58345 4.83249 1531 ft 139 kts 12°
2026-05-06 18:45 52.59310 4.83520 1533 ft 142 kts 12°
2026-05-06 18:45 52.60289 4.83793 1538 ft 144 kts 13°
2026-05-06 18:45 52.61276 4.84113 1537 ft 145 kts 17°
2026-05-06 18:45 52.62260 4.84520 1540 ft 146 kts 17°
2026-05-06 18:46 52.63250 4.84932 1537 ft 147 kts 17°
2026-05-06 18:46 52.64236 4.85351 1537 ft 146 kts 17°
2026-05-06 18:46 52.65181 4.85746 1537 ft 146 kts 17°
2026-05-06 18:46 52.66170 4.86170 1322 ft 156 kts 18°
2026-05-06 18:47 52.67278 4.86657 1040 ft 163 kts 17°
2026-05-06 18:47 52.68259 4.87416 1031 ft 154 kts 39°
2026-05-06 18:47 52.69024 4.88616 1029 ft 149 kts 42°
2026-05-06 18:47 52.69766 4.89792 1026 ft 147 kts 43°
2026-05-06 18:48 52.70516 4.90916 1028 ft 146 kts 32°
2026-05-06 18:48 52.71454 4.91557 1028 ft 146 kts 22°
2026-05-06 18:48 52.72396 4.92147 1027 ft 144 kts 22°
2026-05-06 18:48 52.73326 4.92762 1027 ft 144 kts 22°
2026-05-06 18:49 52.74245 4.93365 1038 ft 145 kts 23°
2026-05-06 18:49 52.75186 4.93954 1070 ft 143 kts 22°
2026-05-06 18:49 52.76108 4.94515 1203 ft 140 kts 22°
2026-05-06 18:49 52.77025 4.95076 1243 ft 143 kts 22°
2026-05-06 18:50 52.77967 4.95662 1246 ft 146 kts 22°
2026-05-06 18:50 52.78922 4.96257 1246 ft 147 kts 22°
2026-05-06 18:50 52.79882 4.96846 1248 ft 147 kts 22°
2026-05-06 18:50 52.80841 4.97444 1249 ft 147 kts 22°
2026-05-06 18:51 52.81801 4.98027 1249 ft 147 kts 22°
2026-05-06 18:51 52.82759 4.98605 1246 ft 147 kts 22°
2026-05-06 18:51 52.83709 4.99168 1248 ft 147 kts 22°
2026-05-06 18:51 52.84675 4.99761 1244 ft 148 kts 22°
2026-05-06 18:52 52.85644 5.00358 1205 ft 150 kts 22°
2026-05-06 18:52 52.86623 5.00968 1201 ft 149 kts 22°
2026-05-06 18:52 52.87596 5.01554 1200 ft 148 kts 22°
2026-05-06 18:52 52.88601 5.01851 1194 ft 151 kts 357°
2026-05-06 18:53 52.89629 5.01455 1192 ft 151 kts 352°
2026-05-06 18:53 52.90651 5.01060 1187 ft 150 kts 352°
2026-05-06 18:53 52.91664 5.00671 1187 ft 149 kts 352°
2026-05-06 18:53 52.92682 5.00275 1188 ft 150 kts 352°
2026-05-06 18:54 52.93704 4.99881 1190 ft 152 kts 351°
2026-05-06 18:54 52.94717 4.99353 1190 ft 153 kts 347°
2026-05-06 18:54 52.95731 4.98776 1191 ft 154 kts 347°
2026-05-06 18:54 52.96746 4.98205 1192 ft 154 kts 347°
2026-05-06 18:55 52.97738 4.97632 1190 ft 153 kts 347°
2026-05-06 18:55 52.98740 4.97053 1190 ft 153 kts 347°
2026-05-06 18:55 52.99744 4.96462 1189 ft 153 kts 347°
2026-05-06 18:55 53.00756 4.95875 1186 ft 154 kts 346°
2026-05-06 18:56 53.01768 4.95328 1187 ft 144 kts 348°
2026-05-06 18:56 53.02625 4.94844 1172 ft 118 kts 345°
2026-05-06 18:56 53.03270 4.93897 1138 ft 136 kts 320°
2026-05-06 18:56 53.03866 4.92758 1014 ft 126 kts 319°
2026-05-06 18:57 53.04384 4.91685 914 ft 114 kts 316°
2026-05-06 18:57 53.04897 4.90541 890 ft 132 kts 315°
2026-05-06 18:57 53.05430 4.89334 972 ft 122 kts 314°
2026-05-06 18:57 53.05847 4.88269 1009 ft 99 kts 314°
2026-05-06 18:58 53.06214 4.87229 1035 ft 106 kts 311°
2026-05-06 18:58 53.06590 4.86191 1111 ft 104 kts 314°
2026-05-06 18:58 53.06997 4.85172 1114 ft 106 kts 316°
2026-05-06 18:58 53.07387 4.84205 1031 ft 95 kts 317°
2026-05-06 18:59 53.07758 4.83312 816 ft 99 kts 318°
2026-05-06 18:59 53.08173 4.82434 786 ft 95 kts 320°
2026-05-06 18:59 53.08584 4.81614 770 ft 94 kts 319°
2026-05-06 18:59 53.08987 4.80826 726 ft 79 kts 325°
2026-05-06 19:00 53.09410 4.80608 583 ft 64 kts 26°
2026-05-06 19:00 53.09789 4.81015 427 ft 63 kts 34°
2026-05-06 19:00 53.10144 4.81415 292 ft 62 kts 36°
2026-05-06 19:00 53.10372 4.81705 245 ft 63 kts 35°
2026-05-06 19:01 53.10843 4.82261 137 ft 62 kts 35°
2026-05-06 19:01 53.11197 4.82675 26 ft 62 kts 34°
2026-05-06 19:01 53.11486 4.83021 4 ft 41 kts 33°
2026-05-06 19:01 53.11667 4.83221 5 ft 19 kts 30°
2026-05-06 19:02 53.11735 4.83167 3 ft 14 kts 275°
2026-05-06 19:02 53.11738 4.82950 3 ft 23 kts 272°
2026-05-06 19:02 53.11706 4.82773 3 ft 12 kts 221°
2026-05-06 19:02 53.11702 4.82729 3 ft 5 kts 50°
2026-05-06 19:03 53.11711 4.82743 3 ft 0 kts 43°
2026-05-06 19:41 53.11710 4.82761 2 ft 4 kts 161°
2026-05-06 19:41 53.11624 4.82799 1 ft 16 kts 188°
2026-05-06 19:41 53.11511 4.82675 1 ft 23 kts 210°
2026-05-06 19:41 53.11368 4.82487 -3 ft 22 kts 219°
2026-05-06 19:42 53.11305 4.82565 -1 ft 15 kts 130°
2026-05-06 19:42 53.11311 4.82791 -1 ft 32 kts 50°
2026-05-06 19:42 53.11607 4.83203 146 ft 67 kts 37°
2026-05-06 19:42 53.11974 4.83794 420 ft 80 kts 44°
2026-05-06 19:43 53.12351 4.84484 780 ft 80 kts 49°
2026-05-06 19:43 53.12688 4.85270 1117 ft 84 kts 57°
2026-05-06 19:43 53.12626 4.86347 1259 ft 117 kts 108°
2026-05-06 19:43 53.12201 4.87565 1308 ft 121 kts 116°
2026-05-06 19:44 53.11714 4.88706 1364 ft 121 kts 118°
2026-05-06 19:44 53.11148 4.89739 1473 ft 121 kts 128°
2026-05-06 19:44 53.10459 4.90610 1551 ft 124 kts 138°
2026-05-06 19:44 53.09694 4.91257 1679 ft 128 kts 151°
2026-05-06 19:45 53.08745 4.91432 1588 ft 145 kts 174°
2026-05-06 19:45 53.07819 4.92004 1464 ft 142 kts 142°
2026-05-06 19:45 53.06959 4.92823 1409 ft 143 kts 143°
2026-05-06 19:45 53.06091 4.93640 1493 ft 143 kts 142°
2026-05-06 19:46 53.05198 4.94452 1496 ft 148 kts 143°
2026-05-06 19:46 53.04285 4.95279 1508 ft 150 kts 144°
2026-05-06 19:46 53.03372 4.96137 1509 ft 152 kts 143°
2026-05-06 19:46 53.02443 4.97005 1507 ft 154 kts 143°
2026-05-06 19:47 53.01520 4.97858 1500 ft 154 kts 142°
2026-05-06 19:47 53.00568 4.98686 1503 ft 154 kts 144°
2026-05-06 19:47 52.99631 4.99515 1503 ft 152 kts 143°
2026-05-06 19:47 52.98701 5.00346 1506 ft 152 kts 142°
2026-05-06 19:48 52.97755 5.01163 1505 ft 153 kts 143°
2026-05-06 19:48 52.96808 5.01980 1504 ft 154 kts 144°
2026-05-06 19:48 52.95870 5.02817 1508 ft 153 kts 143°
2026-05-06 19:48 52.94938 5.03657 1507 ft 152 kts 143°
2026-05-06 19:49 52.93965 5.04363 1497 ft 154 kts 153°
2026-05-06 19:49 52.92957 5.04944 1505 ft 153 kts 153°
2026-05-06 19:49 52.91958 5.05558 1502 ft 154 kts 152°
2026-05-06 19:49 52.90950 5.06179 1504 ft 155 kts 152°
2026-05-06 19:50 52.89939 5.06789 1508 ft 154 kts 152°
2026-05-06 19:50 52.88927 5.07378 1505 ft 154 kts 152°
2026-05-06 19:50 52.87921 5.07951 1501 ft 149 kts 153°
2026-05-06 19:50 52.86954 5.08511 1468 ft 147 kts 152°
2026-05-06 19:51 52.86035 5.09163 1448 ft 141 kts 146°
2026-05-06 19:51 52.85154 5.09876 1398 ft 140 kts 148°
2026-05-06 19:51 52.84219 5.10314 1465 ft 139 kts 166°
2026-05-06 19:51 52.83264 5.10462 1471 ft 142 kts 167°
2026-05-06 19:52 52.82292 5.10632 1559 ft 138 kts 167°
2026-05-06 19:52 52.81358 5.10807 1483 ft 141 kts 168°
2026-05-06 19:52 52.80379 5.10781 1566 ft 141 kts 182°
2026-05-06 19:52 52.79426 5.10270 1594 ft 145 kts 209°
2026-05-06 19:53 52.78720 5.09080 1580 ft 146 kts 243°
2026-05-06 19:53 52.78444 5.07537 1655 ft 137 kts 274°
2026-05-06 19:53 52.78581 5.06052 1707 ft 129 kts 298°
2026-05-06 19:53 52.79049 5.04917 1633 ft 109 kts 331°
2026-05-06 19:54 52.79672 5.04152 1137 ft 117 kts 329°
2026-05-06 19:54 52.80245 5.03238 777 ft 116 kts 313°
2026-05-06 19:54 52.80098 5.01960 487 ft 114 kts 244°
2026-05-06 19:54 52.79877 5.00940 363 ft 79 kts 292°
2026-05-06 19:55 52.80237 5.00588 255 ft 63 kts 14°
2026-05-06 19:55 52.80632 5.00964 201 ft 70 kts 28°
2026-05-06 19:55 52.81126 5.01113 114 ft 72 kts 25°
2026-05-06 19:55 52.81394 5.01780 20 ft 77 kts 70°